Wind_Speed
55 56 58 59 60 59 60 60 59 57 56 56 54 46 43 41 40 38 37 39 38 37 36 34 36 36 37 38 40 42 40 39 39 41 39 41 42 43 45 49 54 58 61
61 62 62 61 58 58 58 60 62 58 57 55 55 51 42 35 36 41 35 37 37 34 33 37 39 43 42 38 39 38 39 37 40 43 46 47 49 52 54 56 59 62 65
61 52 47 45 45 46 45 44 45 46 48 50 50 45 44 39 37 27 30 37 34 29 31 34 35 33 32 36 34 36 37 40 43 46 48 51 54 56 59 62 64 64 65
42 44 47 48 45 41 36 41 40 39 40 43 42 41 38 38 41 42 41 37 37 39 35 37 34 34 39 35 37 40 42 44 44 46 49 52 54 55 54 54 56 57 56
45 45 44 40 42 40 40 37 35 34 36 36 37 38 31 30 34 29 37 28 31 43 30 34 32 36 34 37 41 41 42 43 46 47 48 47 47 47 48 46 45 45 44
46 44 36 38 37 35 34 28 27 26 31 30 31 31 28 27 27 30 32 35 36 32 35 35 34 26 29 38 42 45 44 45 43 41 39 41 41 40 36 28 31 31 30
39 36 36 40 30 30 31 27 24 23 26 30 22 26 25 22 19 28 27 24 26 28 27 32 32 37 36 36 37 38 35 34 35 35 34 34 32 24 23 23 23 23 21
31 32 33 34 28 24 28 25 26 24 33 35 32 26 22 19 19 20 27 32 26 35 36 34 32 31 31 32 31 30 31 29 26 27 26 23 21 19 20 21 20 17 14
29 29 27 29 25 23 26 26 28 25 28 27 23 19 19 17 16 18 20 23 24 25 20 20 23 23 21 23 25 22 22 22 19 18 18 16 17 17 18 15 12 10 6
28 25 26 27 24 24 26 27 26 25 25 25 23 20 18 16 14 12 12 13 16 17 17 14 14 16 18 18 18 17 13 11 12 16 15 15 12 12 13 12 11 9 9
25 22 23 24 27 27 28 29 29 28 28 25 22 19 17 16 14 13 12 11 9 9 10 10 11 14 13 11 9 8 10 11 12 11 9 11 14 14 15 14 14 15 15
23 21 25 27 28 28 29 30 31 29 27 25 26 24 20 16 15 13 12 11 12 12 11 11 10 9 8 7 8 11 12 12 11 10 9 10 12 13 13 14 15 16 18
21 24 27 28 30 30 29 27 24 25 26 23 20 18 17 15 14 13 12 12 13 11 11 13 14 12 12 11 11 12 14 14 14 15 13 15 15 17 20 21 20 20 22
23 29 31 31 27 28 28 26 25 21 20 19 18 18 17 16 15 12 11 10 13 16 16 14 13 14 13 12 12 15 16 18 20 21 22 22 22 22 23 23 23 23 23
27 28 29 29 31 30 26 23 21 21 21 20 19 17 15 15 14 14 15 18 19 18 17 18 17 14 15 15 16 18 20 23 24 23 23 24 24 24 24 24 25 26 25
26 27 29 31 32 27 24 24 25 24 23 22 22 22 21 21 21 21 24 25 21 19 20 19 16 16 16 16 18 20 21 22 22 23 24 26 25 23 21 22 23 24 24
27 29 35 34 27 26 26 26 25 25 24 24 23 23 24 23 23 25 27 24 22 24 24 24 22 20 19 19 20 22 23 22 21 20 18 19 20 21 22 23 23 23 24
28 34 35 31 29 27 26 25 26 26 25 24 24 24 22 21 24 25 24 25 25 26 25 26 25 24 23 21 21 21 19 18 17 17 16 15 17 18 20 20 19 20 21
29 34 33 30 30 29 28 27 27 25 25 24 25 25 23 24 24 24 26 25 25 25 25 25 24 23 22 20 18 17 16 16 16 17 22 22 22 19 19 19 19 19 18
29 31 32 30 29 29 30 30 28 25 24 23 25 24 22 22 20 20 23 24 23 23 23 23 22 20 19 18 18 17 19 18 17 18 18 17 16 17 18 16 16 18 17
31 29 31 33 31 29 29 30 30 28 24 23 23 21 21 22 21 21 23 23 22 23 23 23 23 25 23 20 18 17 17 16 16 16 16 17 17 15 14 15 17 15 17
28 31 33 33 33 34 32 30 30 30 27 21 23 20 19 19 20 20 20 21 22 23 22 21 23 23 22 19 17 15 15 14 14 14 13 12 12 13 13 13 13 12 13
25 28 30 31 33 33 32 34 33 31 29 25 21 20 18 16 17 18 17 18 21 22 21 20 21 21 21 20 19 19 17 16 14 11 9 9 10 10 9 10 10 9 9
23 26 28 30 30 30 29 29 30 30 31 28 22 17 16 17 16 16 16 16 17 18 19 20 17 18 19 19 19 19 18 17 17 16 15 13 9 7 6 6 6 6 7
19 22 26 28 30 31 28 29 29 27 26 25 26 23 14 12 12 14 15 14 15 15 17 17 17 16 16 18 17 17 17 16 17 17 16 13 12 11 10 9 8 7 6
16 18 22 24 26 28 29 28 29 29 28 26 22 21 20 17 9 8 8 10 11 12 14 14 14 15 14 14 15 16 15 15 15 13 13 13 11 9 7 6 5 5 4
Wind_Direction
312 309 306 303 300 299 298 297 295 292 289 288 288 291 288 286 285 284 284 283 284 283 284 286 287 290 296 294 292 293 291 291 287 289 288 286 283 280 277 276 275 274 274
314 312 310 307 303 299 295 292 293 292 291 289 287 284 282 285 293 280 282 281 283 284 287 287 290 293 293 291 293 293 293 288 289 290 288 286 285 284 282 279 277 275 274
314 317 318 318 314 309 307 304 299 296 295 294 290 287 281 279 281 279 275 275 277 282 288 289 291 291 285 294 288 288 292 292 291 289 287 288 288 287 285 282 281 279 277
320 321 317 315 314 309 305 312 307 302 300 295 295 291 286 270 261 285 272 282 279 273 290 281 280 285 288 296 293 294 292 291 290 288 289 290 290 288 285 286 286 284 283
317 316 318 320 320 320 316 313 310 313 310 307 295 294 294 280 267 270 256 286 259 293 290 290 287 289 291 295 299 297 294 293 295 297 296 295 293 292 293 294 291 287 281
319 320 320 326 324 324 329 327 319 314 323 319 309 304 295 287 270 263 261 267 268 278 273 280 290 305 301 301 298 293 298 298 299 298 297 295 297 300 302 307 306 300 294
324 327 330 327 332 338 333 326 335 326 323 330 318 319 309 290 270 265 265 273 275 279 282 287 284 303 296 300 299 298 299 300 298 298 300 302 304 303 306 314 313 306 300
328 333 335 332 337 347 353 359 353 330 311 313 309 309 312 297 283 276 282 274 293 279 290 300 300 301 301 305 303 303 301 300 302 305 305 306 310 317 322 324 322 317 310
333 339 341 343 343 343 352 354 352 358 4 11 1 330 313 314 309 301 295 299 299 302 312 307 303 306 309 306 308 312 313 314 313 313 319 331 333 340 343 345 351 351 353
338 335 342 354 360 349 350 354 357 355 356 358 358 359 5 5 2 349 328 312 315 322 318 316 317 314 321 323 323 328 331 334 346 352 351 353 358 8 23 31 34 40 48
348 348 353 357 360 354 351 347 346 346 347 349 350 350 350 347 342 338 336 337 341 344 339 332 332 331 334 343 356 14 14 12 10 10 29 49 60 57 51 47 50 56 63
359 0 356 359 354 351 349 344 342 345 350 349 348 350 358 6 12 15 14 11 11 10 13 1 360 22 29 30 24 26 28 34 36 48 73 69 64 60 53 59 63 71 76
1 0 360 358 352 347 348 351 355 352 346 353 5 9 13 19 16 13 18 32 29 33 45 61 61 50 42 41 43 46 51 60 61 66 74 71 69 70 74 78 80 82 85
359 4 0 354 358 359 357 357 357 11 15 15 17 20 15 9 11 25 37 45 62 69 73 56 50 44 43 43 59 65 67 67 69 70 72 76 77 76 78 79 81 83 85
8 4 359 1 1 5 14 24 27 26 27 28 27 25 27 34 42 58 78 82 81 73 58 55 51 59 58 70 75 77 76 75 73 75 73 73 77 77 79 81 83 88 90
12 10 9 10 9 23 31 34 31 29 29 32 35 39 48 52 63 76 80 80 70 63 56 55 59 65 70 74 77 79 79 77 78 76 77 74 72 76 85 82 89 90 90
19 18 17 16 26 34 37 31 31 30 35 40 49 48 50 58 72 86 84 76 70 59 60 60 63 68 76 77 81 82 82 80 79 79 75 73 73 75 80 85 87 91 93
28 25 20 27 33 38 36 32 31 35 39 48 50 52 57 72 90 86 77 69 59 61 58 59 63 66 70 74 78 80 80 72 71 69 71 83 81 83 85 89 93 96 96
32 30 26 32 35 37 32 32 32 38 44 54 52 58 71 91 94 76 62 56 60 59 56 53 58 64 67 68 69 71 71 71 68 78 78 82 83 88 89 91 93 99 98
36 33 34 38 38 39 36 33 37 42 47 51 54 60 78 89 87 71 58 61 60 52 52 53 58 66 68 71 74 74 67 73 81 84 88 81 80 85 89 90 95 97 100
38 37 38 40 41 39 38 39 39 40 45 51 50 62 77 83 79 67 65 62 56 54 59 53 61 61 64 65 67 64 63 66 76 82 82 83 82 86 92 87 93 104 97
36 37 39 39 41 42 40 38 40 41 44 51 51 60 74 77 70 62 62 56 54 55 59 56 58 58 54 55 54 57 63 62 64 70 74 72 73 80 83 91 103 96 93
35 35 36 35 37 40 41 43 42 41 43 48 52 55 64 72 65 56 56 53 50 50 53 54 55 55 52 52 56 58 59 59 58 61 68 75 79 83 89 96 98 94 96
35 33 31 32 32 34 34 35 39 42 42 42 49 57 59 59 55 51 52 53 49 47 52 53 54 55 52 48 51 53 52 51 53 55 60 67 77 92 98 96 94 92 98
33 33 31 30 29 29 31 32 34 35 37 40 42 44 48 53 49 48 49 47 44 45 47 47 48 50 51 49 47 48 44 45 48 54 55 56 62 68 76 82 87 93 98
43 35 31 29 28 27 32 38 37 32 33 35 35 37 40 40 33 32 37 35 36 36 37 40 41 40 41 45 45 43 45 46 44 50 54 47 50 53 55 59 65 73 76
Height
5729 5722 5715 5707 5700 5692 5684 5676 5671 5668 5665 5661 5658 5656 5656 5656 5657 5657 5657 5656 5656 5655 5655 5653 5652 5651 5649 5648 5645 5642 5639 5636 5634 5631 5626 5624 5621 5618 5614 5610 5606 5602 5599
5713 5706 5698 5691 5684 5677 5670 5664 5656 5650 5647 5646 5644 5643 5642 5644 5645 5643 5643 5645 5645 5644 5643 5642 5641 5640 5639 5636 5633 5631 5627 5625 5622 5619 5615 5610 5607 5603 5598 5594 5590 5585 5581
5702 5693 5685 5677 5670 5665 5658 5651 5645 5640 5634 5628 5627 5627 5628 5630 5634 5629 5634 5632 5632 5632 5631 5630 5631 5630 5628 5626 5623 5621 5619 5615 5611 5607 5603 5598 5593 5586 5580 5574 5568 5563 5559
5692 5685 5677 5668 5661 5655 5648 5642 5635 5629 5623 5618 5614 5612 5612 5615 5618 5618 5619 5619 5620 5621 5618 5620 5619 5619 5618 5615 5612 5609 5606 5602 5599 5595 5589 5583 5576 5570 5564 5557 5549 5544 5540
5684 5676 5669 5661 5653 5645 5638 5631 5625 5620 5614 5608 5603 5601 5600 5601 5605 5609 5611 5609 5612 5611 5609 5610 5608 5606 5605 5603 5600 5596 5593 5590 5585 5579 5573 5567 5561 5556 5550 5543 5534 5528 5524
5676 5668 5660 5654 5647 5638 5629 5622 5617 5613 5608 5602 5597 5592 5592 5592 5594 5598 5600 5602 5601 5601 5602 5600 5599 5596 5593 5592 5589 5586 5582 5576 5572 5566 5561 5556 5550 5544 5538 5530 5523 5518 5514
5668 5661 5654 5645 5639 5634 5624 5617 5612 5607 5603 5599 5592 5588 5586 5585 5586 5589 5592 5593 5594 5592 5592 5590 5589 5586 5584 5581 5579 5576 5570 5565 5561 5556 5551 5546 5541 5535 5530 5524 5519 5514 5509
5663 5657 5649 5641 5634 5629 5623 5615 5610 5606 5600 5594 5590 5586 5583 5581 5581 5583 5586 5587 5586 5585 5584 5580 5579 5577 5574 5571 5570 5566 5561 5556 5552 5548 5543 5540 5535 5529 5524 5519 5514 5510 5507
5659 5653 5647 5639 5632 5627 5621 5615 5609 5604 5597 5591 5584 5581 5579 5578 5578 5578 5578 5578 5577 5578 5573 5572 5572 5569 5567 5565 5562 5557 5553 5549 5545 5542 5538 5534 5529 5525 5521 5517 5513 5510 5507
5656 5650 5645 5639 5632 5626 5619 5614 5609 5604 5598 5592 5587 5583 5580 5577 5575 5574 5573 5573 5571 5567 5568 5567 5566 5565 5562 5559 5556 5552 5549 5546 5542 5538 5534 5531 5529 5525 5522 5519 5516 5514 5511
5654 5648 5643 5638 5631 5626 5619 5613 5607 5602 5596 5591 5587 5584 5580 5577 5574 5572 5571 5569 5568 5566 5565 5564 5563 5561 5558 5556 5554 5552 5549 5545 5542 5539 5537 5534 5531 5529 5526 5523 5520 5518 5516
5653 5648 5643 5638 5632 5625 5618 5612 5605 5600 5594 5590 5585 5581 5577 5574 5572 5570 5569 5567 5566 5565 5564 5563 5561 5560 5559 5557 5555 5552 5550 5547 5544 5542 5540 5538 5535 5533 5530 5527 5525 5523 5522
5654 5649 5644 5637 5631 5625 5618 5611 5605 5600 5595 5590 5586 5582 5579 5576 5574 5572 5570 5568 5567 5566 5565 5565 5564 5563 5561 5558 5556 5554 5552 5550 5547 5545 5542 5540 5537 5535 5533 5532 5530 5529 5528
5656 5650 5644 5638 5631 5624 5617 5611 5606 5601 5596 5592 5588 5584 5581 5578 5575 5573 5572 5572 5571 5571 5570 5569 5567 5565 5563 5560 5559 5558 5556 5554 5551 5548 5546 5544 5542 5540 5539 5538 5537 5536 5535
5658 5652 5645 5638 5631 5624 5618 5613 5609 5604 5600 5596 5592 5588 5585 5581 5579 5577 5577 5577 5577 5576 5575 5573 5570 5568 5566 5564 5563 5561 5560 5558 5556 5554 5552 5550 5548 5547 5546 5545 5544 5544 5544
5660 5654 5648 5640 5632 5626 5621 5618 5613 5609 5604 5600 5595 5592 5588 5585 5583 5582 5582 5583 5583 5582 5580 5577 5574 5572 5570 5569 5567 5566 5564 5563 5562 5561 5559 5558 5556 5554 5553 5553 5552 5552 5552
5663 5657 5649 5642 5636 5631 5627 5623 5619 5614 5609 5604 5601 5598 5594 5592 5591 5591 5591 5591 5589 5587 5584 5582 5579 5577 5575 5574 5572 5571 5570 5569 5568 5567 5566 5565 5564 5563 5561 5560 5560 5559 5559
5667 5660 5653 5647 5642 5637 5632 5628 5624 5619 5614 5610 5607 5603 5601 5599 5599 5600 5598 5596 5594 5593 5590 5588 5585 5583 5581 5580 5579 5578 5577 5576 5574 5573 5571 5570 5570 5569 5568 5567 5567 5567 5567
5671 5665 5660 5653 5648 5643 5639 5634 5629 5625 5620 5617 5614 5610 5608 5607 5607 5606 5604 5603 5601 5599 5597 5594 5592 5590 5588 5586 5585 5584 5583 5581 5580 5579 5578 5577 5576 5575 5575 5574 5574 5573 5573
5676 5672 5667 5660 5655 5650 5645 5640 5635 5631 5628 5624 5620 5617 5616 5614 5613 5612 5611 5609 5607 5605 5603 5600 5598 5596 5594 5593 5592 5590 5589 5587 5586 5585 5584 5584 5582 5581 5581 5580 5580 5580 5579
5683 5679 5673 5668 5662 5656 5651 5647 5642 5638 5634 5630 5628 5625 5623 5621 5621 5619 5617 5616 5614 5612 5609 5607 5604 5602 5600 5599 5598 5597 5595 5593 5592 5591 5590 5589 5588 5587 5587 5586 5586 5585 5585
5690 5686 5680 5675 5669 5664 5658 5654 5649 5644 5640 5637 5635 5632 5630 5629 5628 5626 5624 5623 5620 5618 5616 5613 5611 5609 5607 5606 5604 5602 5600 5599 5598 5596 5595 5594 5593 5592 5592 5591 5591 5591 5590
5695 5691 5687 5682 5676 5671 5666 5661 5656 5651 5647 5643 5641 5639 5637 5635 5634 5632 5631 5629 5626 5624 5622 5620 5617 5615 5613 5611 5609 5606 5604 5603 5601 5600 5599 5598 5597 5597 5596 5596 5595 5595 5594
5700 5697 5692 5687 5682 5677 5673 5668 5664 5659 5655 5650 5647 5645 5643 5641 5640 5638 5636 5634 5632 5630 5628 5626 5624 5621 5619 5617 5614 5612 5610 5608 5606 5604 5602 5601 5600 5600 5600 5599 5599 5598 5598
5705 5701 5696 5692 5687 5683 5678 5674 5669 5665 5661 5657 5653 5650 5647 5645 5643 5642 5640 5639 5637 5635 5633 5630 5628 5626 5624 5622 5620 5617 5615 5613 5610 5609 5607 5606 5604 5604 5603 5602 5601 5601 5601
5707 5704 5700 5696 5692 5688 5684 5679 5675 5670 5666 5662 5658 5654 5651 5649 5647 5645 5643 5641 5640 5638 5636 5634 5632 5630 5628 5626 5624 5622 5620 5617 5615 5613 5611 5610 5608 5606 5605 5604 5604 5603 5603